Location: ?????????
(54.7630°N, 39.4991°E)
Time: 21:56:00
(UTC+00:00)

Cosmos 1975 Rocket - Pass Details

Date: 14 April 2026
Orbit: 597 x 626 km, 82.5° (Epoch: 13 May)

Event Time Altitude Azimuth Distance (km) Brightness Sun altitude
Rises 20:05:35 0° 344° (NNW) 2,927 8.0 -23.6°
Reaches altitude 10° 20:07:53 10° 339° (NNW) 2,014 6.8 -23.7°
Maximum altitude 20:12:10 47° 266° (W) 830 3.7 -23.9°
Enters shadow 20:12:34 46° 248° (WSW) 847 3.6 -24.0°
